STARLINK-1493, 45759

Orbit data source: Space-Track

STARLINK-1493, 45759 is a payload satellite owned by SpaceX/Seattle (US) in LEO that was launched on Sat, 13 Jun 2020 UTC via an FALCON 9 launch vehicle from the Air Force Eastern Test Range (AFETR). Payload-class satellites include a variety of spacecraft equipped with specific instruments for various scientific and technological missions. These include communications satellites like Starlink; space stations such as the ISS; scientific satellites like the Hubble; Earth observation satellites from companies like Planet Labs, Umbra, and HawkEye 360; GPS; miniature CubeSats for education and research; and military/defense satellites.

Loading next visibility...
Identifier
45759, 2020-038AF
Orbit
LEO
Last TLE update
20 hours ago
Origin
Manufacturer
SpaceX/Seattle
Mission
Operational Commercial Communications
Bus & Motor
STARLINK, Unknown motor
Mass
260 kg wet, ~248 kg dry
Launch date (UTC)
2020-06-13 (5 years ago)
Launch vehicle
FALCON 9
Launch site
Air Force Eastern Test Range (AFETR)
Object type
Payload
Rocket body
Debris
Shape & HBR
Box + 1 Pan, 8.86 m
Radar Cross Section
13.562 m², Large (>1 m²)

Expand to show TLE details & history

TLE from 20 hours ago
0 STARLINK-1493
1 45759U 20038AF  25181.60237266  .00000862  00000-0  76795-4 0  9996
2 45759  53.0557 268.2832 0001095  95.4357 264.6757 15.06390340278472
Epoch: 2025-06-30T14:27Z
TLE epoch observation values (Epoch: 2025-06-30T14:27:24.997Z)
Latitude
-0.00003°
Longitude
132.5192°
Altitude
548.191 km
Speed
7.589 km/s
True Right ascension
17h 53m 07s
True Declination
0° 00' 00"
Sunlit
Object was in full shadow at epoch
Visualization orbit readout
Latitude
-41.95841°
Longitude
-8.99515°
Altitude
561.775 km
Speed
7.58 km/s
Apparent Right ascension
09h 19m 36s
Apparent Declination
-41° 35' 36"
Sunlit
Object is in daylight
Visualization observer readout
Local Sidereal Time
22:15:05
Azimuth
103.566° ESE
Elevation
-79.373°
Doppler factor
1
Orbital elements
Apogee altitude
548.27 km
Perigee altitude
546.753 km
Semi-major axis
6,925.649 km
Eccentricity
0.00011
Inclination
53.0557°
RAAN
268.2832°
Arg. of periapsis
95.4357°
True anomaly
Unknown
Mean anomaly
264.6757°
Eccentric anomaly
Unknown
Mean motion
3.76576 °/min
Orbital period
95.6 mins
BSTAR
0.000076795
Loading maneuver chart data...
Loading SW <> Apogee altitude chart data...

STARLINK-1493 Visibility forecast

Observer location: undefined°, undefined°

Span
Click to sort rows by Start time (UTC) header in descending order
Start Az.
Max El. time (UTC)
Max El. Az.
Max El.
End time (UTC)
End Az.
6 mins2025-07-01 14:50:36.681Z324.771° NNW2025-07-01 14:52:36.681Z10.807° NNE38.41°2025-07-01 14:56:36.681Z113.23° SE
4 mins2025-07-01 16:30:36.681Z262.737° W2025-07-01 16:32:36.681Z223.662° SW19.182°2025-07-01 16:34:36.681Z190.218° SSW
6 mins2025-07-02 08:02:36.681Z219.944° SW2025-07-02 08:05:36.681Z86.862° E42.419°2025-07-02 08:08:36.681Z54.163° ENE
4 mins2025-07-02 09:43:36.681Z305.546° NW2025-07-02 09:44:36.681Z325.914° NNW21.261°2025-07-02 09:47:36.681Z22.911° NE
|